Regional Weather Roundup
Issued by NWS

Home | Current Version | Previous Version | Text Only | Print | Product List | Glossary Off
Versions: 1 2 3 4 5 6 7 8 9 10 11 12 13 14 15 16 17 18 19 20 21 22 23 24 25 26 27 28 29 30 31 32 33 34 35 36 37 38 39 40 41 42 43 44 45 46 47 48 49 50

000
ASUS43 KTOP 220359
RWRKS

WEATHER ROUNDUP FOR KANSAS
NATIONAL WEATHER SERVICE GOODLAND KS
1000 PM CST WED FEB 21 2018

NOTE:  "FAIR" INDICATES FEW OR NO CLOUDS BELOW 12,000 FEET WITH NO
SIGNIFICANT WEATHER AND/OR OBSTRUCTIONS TO VISIBILITY.

KSZ001>006-013>018-027>032-041>047-220500-
NORTHWEST KANSAS

CITY           SKY/WX    TMP DP  RH WIND       PRES   REMARKS
GOODLAND       CLOUDY    22   3  44 SE12      30.26S WCI  10
HAYS           CLOUDY    25   9  50 NE10      30.39F WCI  15
HILL CITY      CLOUDY    26   5  40 E8        30.39F
RUSSELL        CLOUDY    28  11  48 NE9       30.39S
$$

KSZ061>065-074>080-084>089-220500-
SOUTHWEST KANSAS

CITY           SKY/WX    TMP DP  RH WIND       PRES   REMARKS
DODGE CITY     CLOUDY    24   3  40 E10       30.34R WCI  14
GARDEN CITY    CLOUDY    22   2  42 E9        30.32S
GREAT BEND     CLOUDY    25  12  58 E13       30.38F WCI  14
LIBERAL        CLOUDY    24   6  46 E10       30.30F WCI  14
$$

KSZ066>073-081>083-090>101-220500-
SOUTHEAST KANSAS

CITY           SKY/WX    TMP DP  RH WIND       PRES   REMARKS
CHANUTE        CLOUDY    28  25  88 NE9       30.41R
COFFEYVILLE    CLOUDY    29  26  89 NE13      30.40R WCI  19
HUTCHINSON     FRZ RAIN  24  22  91 NE9       30.38F FOG
MEDICINE LODGE   N/A     24  22  91 NE6       30.37F
NEWTON         FLURRIES  23  21  92 NE8       30.39F
PARSONS        CLOUDY    28  27  96 NE7       30.41R
WICHITA INTL   FRZ RAIN  25  24  96 N8        30.38F
WICHITA JABRA  FRZ RAIN  24  23  96 NE12      30.37F FOG     WCI  13
WICHITA MCCONL FRZ RAIN  25  23  92 NE9       30.37
WINFIELD       CLOUDY    26  26 100 NE9       30.39S
$$

KSZ007>012-019>026-033>040-048>060-102>105-220500-
NORTHEAST KANSAS

CITY           SKY/WX    TMP DP  RH WIND       PRES   REMARKS
CONCORDIA      CLOUDY    25  15  66 NE10      30.43F WCI  15
EMPORIA        CLOUDY    24  22  91 NE8       30.40F FOG
LAWRENCE       CLOUDY    28  24  85 NE8       30.46S
MANHATTAN      MIX PCPN  28  21  75 NE9       30.45F
OLATHE IND     CLOUDY    26  23  88 NE14      30.44S WCI  14
OLATHE EXE     CLOUDY    25  23  92 NE12      30.43F WCI  14
SALINA         FLURRIES  26  21  81 E9        30.44S
TOPEKA BILLARD CLOUDY    28  24  85 NE14      30.44F WCI  17
TOPEKA FORBES  FRZ RAIN  28  24  85 NE10      30.42F FOG     WCI  19
$$




USA.gov is the U.S. government's official web portal to all federal, state and local government web resources and services.